| time (UTC) | temp C | wind direction | speed KPH | gust KPH | rain 1hr cm | rain 24hr cm | rain mn cm | humidity % | barometer mb |
| 20260507100043 | 8 | 234 | 0.0 | 1.6 | 0.08 | 0.30 | 0.18 | 88 | 1015.3 |
| 20260507094543 | 8 | 234 | 0.0 | 3.2 | 0.08 | 0.28 | 0.15 | 88 | 1015.2 |
| 20260507093044 | 8 | 215 | 1.6 | 4.8 | 0.05 | 0.25 | 0.13 | 88 | 1015.3 |
| 20260507091539 | 9 | 207 | 1.6 | 4.8 | 0.05 | 0.23 | 0.10 | 88 | 1015.2 |
| 20260507090033 | 10 | 205 | 0.0 | 4.8 | 0.05 | 0.23 | 0.10 | 88 | 1015.4 |
| 20260507084531 | 10 | 167 | 1.6 | 4.8 | 0.05 | 0.20 | 0.08 | 87 | 1015.2 |
| 20260507083030 | 10 | 163 | 0.0 | 1.6 | 0.08 | 0.20 | 0.08 | 87 | 1015.1 |
| 20260507081535 | 10 | 163 | 0.0 | 3.2 | 0.05 | 0.18 | 0.05 | 87 | 1014.7 |
| 20260507080026 | 10 | 236 | 1.6 | 3.2 | 0.05 | 0.18 | 0.05 | 86 | 1014.9 |
| 20260507074524 | 11 | 236 | 1.6 | 3.2 | 0.00 | 0.13 | 0.00 | 84 | 1014.8 |
| 20260507073021 | 11 | 236 | 1.6 | 4.8 | 0.00 | 0.13 | 0.00 | 83 | 1014.2 |
| 20260507071523 | 11 | 248 | 1.6 | 3.2 | 0.00 | 0.13 | 0.00 | 82 | 1014.3 |
| 20260507070019 | 11 | 247 | 1.6 | 3.2 | 0.00 | 0.13 | 0.00 | 82 | 1014.2 |
| 20260507064517 | 11 | 246 | 1.6 | 4.8 | 0.00 | 0.13 | 0.00 | 84 | 1014.3 |
| 20260507063015 | 11 | 238 | 1.6 | 4.8 | 0.00 | 0.13 | 0.00 | 85 | 1014.3 |
| 20260507061512 | 12 | 215 | 1.6 | 3.2 | 0.00 | 0.13 | 0.00 | 86 | 1013.9 |
| 20260507060011 | 12 | 290 | 1.6 | 6.4 | 0.00 | 0.13 | 0.00 | 87 | 1014.3 |
| 20260507054510 | 12 | 275 | 1.6 | 11.3 | 0.00 | 0.13 | 0.00 | 87 | 1014.6 |
| 20260507053009 | 12 | 220 | 1.6 | 4.8 | 0.00 | 0.13 | 0.00 | 87 | 1014.4 |
| 20260507051506 | 12 | 187 | 0.0 | 6.4 | 0.00 | 0.13 | 0.00 | 86 | 1014.1 |
| 20260507050008 | 13 | 217 | 1.6 | 4.8 | 0.00 | 0.13 | 0.00 | 87 | 1014.2 |
| 20260507044600 | 14 | 204 | 1.6 | 8.0 | 0.03 | 0.13 | 0.00 | 86 | 1014.2 |
| 20260507043102 | 14 | 203 | 3.2 | 6.4 | 0.03 | 0.13 | 0.00 | 86 | 1014.1 |
| 20260507041605 | 14 | 194 | 1.6 | 6.4 | 0.03 | 0.13 | 0.00 | 86 | 1014.1 |
| 20260507040057 | 14 | 201 | 3.2 | 12.9 | 0.03 | 0.13 | 0.00 | 86 | 1014.4 |
| 20260507034557 | 15 | 207 | 0.0 | 6.4 | 0.00 | 0.10 | 0.10 | 86 | 1014.4 |
| 20260507033053 | 15 | 197 | 8.0 | 16.1 | 0.00 | 0.10 | 0.10 | 87 | 1014.2 |
| 20260507031551 | 15 | 197 | 6.4 | 14.5 | 0.00 | 0.10 | 0.10 | 87 | 1013.7 |
| 20260507030056 | 14 | 203 | 3.2 | 14.5 | 0.00 | 0.10 | 0.10 | 87 | 1013.4 |
| 20260507024548 | 14 | 204 | 3.2 | 14.5 | 0.00 | 0.10 | 0.10 | 86 | 1013.7 |
| 20260507023101 | 14 | 202 | 3.2 | 11.3 | 0.00 | 0.10 | 0.10 | 86 | 1013.8 |
| 20260507021552 | 14 | 202 | 3.2 | 14.5 | 0.00 | 0.10 | 0.10 | 87 | 1013.8 |
| 20260507020046 | 14 | 184 | 3.2 | 11.3 | 0.00 | 0.10 | 0.10 | 87 | 1013.7 |
| 20260507014557 | 14 | 208 | 1.6 | 16.1 | 0.00 | 0.10 | 0.10 | 86 | 1013.9 |
| 20260507013103 | 13 | 223 | 4.8 | 16.1 | 0.00 | 0.10 | 0.10 | 87 | 1013.8 |
| 20260507011544 | 13 | 212 | 3.2 | 17.7 | 0.00 | 0.10 | 0.10 | 87 | 1014.1 |
| 20260507010042 | 13 | 194 | 4.8 | 16.1 | 0.00 | 0.10 | 0.10 | 87 | 1014.2 |
| 20260507004541 | 13 | 137 | 0.0 | 11.3 | 0.03 | 0.10 | 0.10 | 87 | 1014.1 |
| 20260507003040 | 13 | 190 | 3.2 | 14.5 | 0.03 | 0.10 | 0.10 | 87 | 1014.2 |
| 20260507001555 | 13 | 190 | 4.8 | 14.5 | 0.05 | 0.10 | 0.10 | 87 | 1013.9 |
| 20260507000039 | 14 | 215 | 3.2 | 17.7 | 0.03 | 0.08 | 0.08 | 87 | 1013.7 |
| 20260506234537 | 14 | 143 | 3.2 | 8.0 | 0.03 | 0.08 | 0.08 | 87 | 1014.0 |
| 20260506233043 | 14 | 145 | 1.6 | 4.8 | 0.05 | 0.08 | 0.08 | 87 | 1013.9 |
| 20260506231539 | 15 | 175 | 3.2 | 12.9 | 0.03 | 0.05 | 0.05 | 87 | 1013.8 |
| 20260506230033 | 15 | 162 | 1.6 | 12.9 | 0.03 | 0.05 | 0.05 | 87 | 1013.9 |
| 20260506224531 | 15 | 130 | 4.8 | 12.9 | 0.03 | 0.05 | 0.05 | 86 | 1014.1 |
| 20260506223029 | 15 | 193 | 1.6 | 9.7 | 0.00 | 0.03 | 0.03 | 86 | 1014.2 |
| 20260506221528 | 15 | 148 | 1.6 | 8.0 | 0.00 | 0.03 | 0.03 | 86 | 1014.2 |
| 20260506220026 | 16 | 186 | 1.6 | 14.5 | 0.03 | 0.03 | 0.03 | 86 | 1014.4 |
| 20260506214524 | 16 | 255 | 3.2 | 19.3 | 0.03 | 0.03 | 0.03 | 85 | 1014.7 |
| 20260506213024 | 16 | 225 | 3.2 | 25.7 | 0.03 | 0.03 | 0.03 | 84 | 1014.6 |
| 20260506211523 | 16 | 242 | 6.4 | 19.3 | 0.03 | 0.03 | 0.03 | 84 | 1014.7 |
| 20260506210022 | 16 | 162 | 8.0 | 17.7 | 0.00 | 0.00 | 0.00 | 83 | 1014.7 |
| 20260506204520 | 16 | 201 | 8.0 | 19.3 | 0.00 | 0.00 | 0.00 | 81 | 1014.9 |
| 20260506203022 | 17 | 221 | 3.2 | 16.1 | 0.00 | 0.00 | 0.00 | 79 | 1015.0 |
| 20260506201520 | 17 | 219 | 6.4 | 20.9 | 0.00 | 0.00 | 0.00 | 79 | 1014.7 |
| 20260506200018 | 17 | 153 | 1.6 | 12.9 | 0.00 | 0.00 | 0.00 | 80 | 1014.6 |
| 20260506194517 | 17 | 144 | 0.0 | 12.9 | 0.00 | 0.00 | 0.00 | 77 | 1015.0 |
| 20260506193016 | 18 | 18 | 1.6 | 8.0 | 0.00 | 0.00 | 0.00 | 74 | 1015.1 |
| 20260506191517 | 19 | 150 | 1.6 | 9.7 | 0.00 | 0.00 | 0.00 | 68 | 1015.0 |
| 20260506190015 | 20 | 175 | 4.8 | 14.5 | 0.00 | 0.00 | 0.00 | 64 | 1014.8 |
| 20260506184513 | 20 | 214 | 4.8 | 19.3 | 0.00 | 0.00 | 0.00 | 62 | 1015.0 |
| 20260506183013 | 20 | 187 | 1.6 | 17.7 | 0.00 | 0.00 | 0.00 | 62 | 1014.9 |
| 20260506181513 | 20 | 277 | 6.4 | 17.7 | 0.00 | 0.00 | 0.00 | 61 | 1015.1 |
| 20260506180010 | 21 | 201 | 4.8 | 12.9 | 0.00 | 0.00 | 0.00 | 61 | 1015.2 |
| 20260506174509 | 21 | 228 | 4.8 | 12.9 | 0.00 | 0.00 | 0.00 | 62 | 1015.5 |
| 20260506173008 | 21 | 169 | 1.6 | 16.1 | 0.00 | 0.00 | 0.00 | 61 | 1015.6 |
| 20260506171508 | 21 | 242 | 4.8 | 11.3 | 0.00 | 0.00 | 0.00 | 61 | 1015.6 |
| 20260506170007 | 21 | 182 | 4.8 | 12.9 | 0.00 | 0.00 | 0.00 | 61 | 1015.8 |
| 20260506164506 | 21 | 188 | 3.2 | 17.7 | 0.00 | 0.00 | 0.00 | 61 | 1016.0 |
| 20260506163008 | 21 | 217 | 4.8 | 11.3 | 0.00 | 0.00 | 0.00 | 60 | 1016.1 |
| 20260506161501 | 21 | 151 | 4.8 | 11.3 | 0.00 | 0.00 | 0.00 | 60 | 1016.5 |
| 20260506160108 | 21 | 123 | 3.2 | 16.1 | 0.00 | 0.00 | 0.00 | 60 | 1016.6 |
| 20260506154558 | 21 | 177 | 1.6 | 22.5 | 0.00 | 0.00 | 0.00 | 60 | 1016.8 |
| 20260506153056 | 21 | 248 | 1.6 | 12.9 | 0.00 | 0.00 | 0.00 | 59 | 1017.1 |
| 20260506151554 | 21 | 222 | 4.8 | 11.3 | 0.00 | 0.00 | 0.00 | 60 | 1017.2 |
| 20260506150055 | 21 | 167 | 4.8 | 20.9 | 0.00 | 0.00 | 0.00 | 62 | 1017.3 |
| 20260506144552 | 21 | 221 | 4.8 | 16.1 | 0.00 | 0.00 | 0.00 | 62 | 1017.2 |
| 20260506143048 | 20 | 154 | 6.4 | 16.1 | 0.00 | 0.00 | 0.00 | 64 | 1017.1 |
| 20260506141544 | 20 | 109 | 4.8 | 16.1 | 0.00 | 0.00 | 0.00 | 67 | 1017.0 |
| 20260506140045 | 18 | 198 | 4.8 | 16.1 | 0.00 | 0.00 | 0.00 | 70 | 1017.3 |
| 20260506134607 | 18 | 194 | 1.6 | 12.9 | 0.00 | 0.00 | 0.00 | 72 | 1017.5 |
| 20260506133035 | 17 | 225 | 3.2 | 11.3 | 0.00 | 0.00 | 0.00 | 73 | 1017.9 |
| 20260506131537 | 17 | 218 | 8.0 | 16.1 | 0.00 | 0.00 | 0.00 | 73 | 1017.7 |
| 20260506130033 | 17 | 183 | 3.2 | 12.9 | 0.00 | 0.00 | 0.00 | 74 | 1017.7 |
| 20260506124531 | 17 | 201 | 3.2 | 11.3 | 0.00 | 0.00 | 0.00 | 77 | 1018.1 |
| 20260506123030 | 16 | 227 | 3.2 | 16.1 | 0.00 | 0.00 | 0.00 | 77 | 1018.0 |
| 20260506121529 | 16 | 108 | 3.2 | 14.5 | 0.00 | 0.00 | 0.00 | 79 | 1017.7 |
| 20260506120029 | 16 | 210 | 3.2 | 9.7 | 0.00 | 0.00 | 0.00 | 80 | 1018.2 |
| 20260506114534 | 16 | 213 | 3.2 | 16.1 | 0.00 | 0.00 | 0.00 | 79 | 1018.4 |
| 20260506113032 | 15 | 198 | 3.2 | 11.3 | 0.00 | 0.00 | 0.00 | 80 | 1018.4 |
| 20260506111526 | 15 | 232 | 1.6 | 11.3 | 0.00 | 0.00 | 0.00 | 80 | 1018.3 |
| 20260506110025 | 15 | 107 | 1.6 | 9.7 | 0.00 | 0.00 | 0.00 | 81 | 1018.2 |
| 20260506104524 | 15 | 146 | 1.6 | 14.5 | 0.00 | 0.00 | 0.00 | 81 | 1018.3 |
| 20260506103026 | 15 | 207 | 1.6 | 9.7 | 0.00 | 0.00 | 0.00 | 81 | 1018.4 |